Location: Eurasberg
(48.3353°N, 11.0839°E)
Time: 06:28:18
(UTC+00:00)

Cosmos 2074 Rocket - Pass Details

Date: 18 January 2026
Orbit: 966 x 986 km, 82.9° (Epoch: 10 February)

Event Time Altitude Azimuth Distance (km) Brightness Sun altitude
Rises 05:14:06 0° 207° (SSW) 3,683 6.9 -17.1°
Reaches altitude 10° 05:16:43 10° 213° (SSW) 2,738 6.1 -16.7°
Maximum altitude 05:22:44 47° 286° (WNW) 1,294 4.2 -15.7°
Drops below altitude 10° 05:28:48 10° 359° (N) 2,749 6.2 -14.7°
Sets 05:31:27 0° 6° (N) 3,699 6.9 -14.3°
